Weather in Novaya Lyada

Russia / Tambov Oblast     52°42′38″N   41°38′54″E
temp.,
°C
wind,
m/s
gust,
m/s
humid.,
%
clouds,
%
prec.,
mm/h
press.,
hPa
HPBL,
m
14 august, sun
sun1400:00+19ene1174100 0.3 102014
03:00+19e2279100 0.8 101934
06:00+19ene2364100 0.0 102062
09:00+20ene3760100 0.0 1019230
12:00+23ne2652100 0.0 1019216
15:00+28nne243599 0.0 10181152
18:00+27e374090 0.0 1017365
21:00+21e385040 0.0 1018129
15 august, mon
mon1500:00+21ene4115868 0.0 1018318
03:00+18e397134 0.0 1018182
06:00+18e3106914 0.0 1019242
09:00+25e57475 0.0 1019610
12:00+29e56355 0.0 10181934
15:00+31e553010 0.0 10172318
18:00+28e583784 0.0 1017638
21:00+24e6133995 0.0 1019550
16 august, tue
tue1600:00+21e5144091 0.0 1020443
03:00+19e4134691 0.0 1020364
06:00+17e41257100 0.0 1021352
09:00+24e59386 0.0 1020748
12:00+28e67306 0.0 10191676
15:00+30e5727100 0.0 10182130
18:00+29e373345 0.0 1017266
21:00+25e41340100 0.0 1017411
17 august, wed
wed1700:00+23ese41343100 0.0 1018460
03:00+23se41240100 0.0 1018499
06:00+23e3944100 0.0 1017250
09:00+22e41143100 0.0 1017368
12:00+28e61028100 0.0 1017744
15:00+30e5725100 0.0 10161703
18:00+27ene5931100 0.0 1016655
21:00+24ene5133839 0.0 1016388
18 august, thu
thu1800:00+22e51443100 0.1 1015440
03:00+21e41446100 0.4 1014392
06:00+20ne5134999 0.0 1014321
09:00+25ene51035100 0.0 1013554
12:00+30ene6727100 0.0 1012993
15:00+31e5927100 0.0 10112044
18:00+25e71041100 0.0 1012418
21:00+25ne61443100 0.0 1011579